KLM702 SAEZ-EHAM

Flight info

Callsign KLM702
Flight time N/A
Altitude 31000
Route DORVO1E DORVO UN857 OGRUN DCT NIGBI UZ121 PENSO UZ5 SEKPO DCT KADAG/N0500F330 UZ2 SLI DCT MAVKO DCT GOGSO DCT GARPO/M083F350 DCT TEGTO DCT SORAD DCT 35N022W 40N019W/M083F370 DCT GONAN DCT TAMEL DCT EVBAK DCT GAPLI/N0477F370 DCT GAJIT DCT ENHAQ DCT REDFA
Aircraft B77W/H-SDE1E2E3FGHIJ2J3J4J5M1RWXY/LB1D1

Departure

Time 2026-04-29 03:17
Airport Ezeiza International Airport - Ministro Pistarini (SAEZ)

Arrival

Time N/A
Airport Amsterdam Airport Schiphol (EHAM)
Time Latitude Longitude Altitude Speed Heading
2026-04-29 02:21 -34.81607 -58.53979 84 ft 0 kts 321°
2026-04-29 03:02 -34.81613 -58.53973 85 ft 4 kts 320°
2026-04-29 03:02 -34.81633 -58.53951 85 ft 4 kts 314°
2026-04-29 03:02 -34.81652 -58.53928 85 ft 4 kts 316°
2026-04-29 03:03 -34.81669 -58.53909 85 ft 4 kts 326°
2026-04-29 03:03 -34.81691 -58.53895 85 ft 4 kts 349°
2026-04-29 03:03 -34.81712 -58.53895 85 ft 4 kts 23°
2026-04-29 03:03 -34.81730 -58.53910 85 ft 4 kts 52°
2026-04-29 03:04 -34.81745 -58.53937 85 ft 4 kts 62°
2026-04-29 03:04 -34.81756 -58.53962 85 ft 1 kts 60°
2026-04-29 03:07 -34.81755 -58.53960 85 ft 1 kts 60°
2026-04-29 03:08 -34.81748 -58.53946 85 ft 5 kts 60°
2026-04-29 03:08 -34.81716 -58.53880 85 ft 7 kts 59°
2026-04-29 03:08 -34.81701 -58.53844 84 ft 7 kts 71°
2026-04-29 03:08 -34.81700 -58.53783 82 ft 7 kts 101°
2026-04-29 03:09 -34.81728 -58.53733 85 ft 7 kts 140°
2026-04-29 03:09 -34.81772 -58.53704 85 ft 7 kts 154°
2026-04-29 03:09 -34.81818 -58.53678 85 ft 7 kts 154°
2026-04-29 03:09 -34.81862 -58.53649 84 ft 7 kts 148°
2026-04-29 03:10 -34.81899 -58.53608 84 ft 7 kts 126°
2026-04-29 03:10 -34.81919 -58.53552 81 ft 7 kts 107°
2026-04-29 03:10 -34.81934 -58.53483 82 ft 10 kts 104°
2026-04-29 03:10 -34.81953 -58.53386 84 ft 13 kts 104°
2026-04-29 03:11 -34.81978 -58.53264 84 ft 16 kts 103°
2026-04-29 03:11 -34.82004 -58.53133 84 ft 16 kts 103°
2026-04-29 03:11 -34.82029 -58.53003 86 ft 16 kts 103°
2026-04-29 03:11 -34.82055 -58.52872 88 ft 16 kts 104°
2026-04-29 03:12 -34.82082 -58.52742 85 ft 16 kts 104°
2026-04-29 03:12 -34.82108 -58.52612 84 ft 16 kts 104°
2026-04-29 03:12 -34.82134 -58.52481 82 ft 16 kts 103°
2026-04-29 03:12 -34.82159 -58.52351 82 ft 16 kts 103°
2026-04-29 03:13 -34.82184 -58.52222 82 ft 16 kts 103°
2026-04-29 03:13 -34.82211 -58.52092 82 ft 16 kts 104°
2026-04-29 03:13 -34.82238 -58.51961 83 ft 16 kts 104°
2026-04-29 03:13 -34.82259 -58.51855 84 ft 8 kts 103°
2026-04-29 03:14 -34.82279 -58.51801 84 ft 7 kts 137°
2026-04-29 03:14 -34.82325 -58.51790 84 ft 7 kts 183°
2026-04-29 03:14 -34.82372 -58.51799 85 ft 7 kts 191°
2026-04-29 03:14 -34.82418 -58.51812 85 ft 7 kts 193°
2026-04-29 03:15 -34.82469 -58.51827 87 ft 8 kts 193°
2026-04-29 03:15 -34.82507 -58.51837 89 ft 4 kts 193°
2026-04-29 03:15 -34.82525 -58.51854 91 ft 2 kts 237°
2026-04-29 03:15 -34.82526 -58.51873 91 ft 3 kts 278°
2026-04-29 03:16 -34.82523 -58.51888 91 ft 0 kts 279°
2026-04-29 03:16 -34.82510 -58.51972 89 ft 41 kts 282°
2026-04-29 03:16 -34.82386 -58.52666 86 ft 125 kts 282°
2026-04-29 03:17 -34.82146 -58.54018 91 ft 200 kts 282°
2026-04-29 03:17 -34.81810 -58.55785 677 ft 217 kts 282°
2026-04-29 03:17 -34.81479 -58.57569 1686 ft 219 kts 282°
2026-04-29 03:17 -34.81128 -58.59466 1931 ft 237 kts 281°
2026-04-29 03:18 -34.81044 -58.60109 2037 ft 240 kts 273°